Content
SEND FEEDBACK

Daily
Averages
Monthly
Summary
United States of America

COSHOCTON, OHIO


Home > North America > United States > Ohio
Elevation: 228 meters     Latitude: 40 15N     Longitude: 081 52W

WEATHER
 
SELECT A DAY
Number of Records: 201,667;   Date Range: 1/28/98 - 9/29/14
 
SHARE

PRINT THIS DATA

[ ← Previous Day ]
WEATHER ALMANAC - 13 FEBRUARY, 2013
[ Next Day → ]
[ °F ]   °C
Weather ElementAverageHighLow
Temperature-0.8 °C2 °C (3:08 pm)-4.4 °C (11:53 pm)
Dewpoint-4.6 °C-3 °C (3:08 pm)-6.7 °C (3:53 am)
Humidity76.4 %88 % (6:53 am)70 % (9:53 am)
Barometer1010.2 hPa1013.2 hPa (1:53 am)1006.4 hPa (3:08 pm)
Wind Speed3.9 km/h11.1 km/h (8:53 am)
Weather ElementAverage
Visibility11.3 km
Wind DirectionESE (107.6 °)

Weather ElementTotal
Precipitation---
Heating Degree Days19.6 (Base 18.3)
Averaged from 25 records on 13 February, 2013
WEATHER CONDITIONS BREAKOUT
WIND DIRECTION BREAKOUT
WEATHER BY HOUR - 13 FEBRUARY, 2013
[ °F ]   °C
Local TimeTemperatureDewpointHumidityBarometerVisibilityWind DirectionWind SpeedGust SpeedPrecipitationEventsConditions
1:53 AM-3.3 °C-6.1 °C81 %1013.2 hPa14.5 kmCalmClear
2:53 AM-3.9 °C-6.1 °C85 %1012.9 hPa14.5 kmCalmClear
3:53 AM-3.9 °C-6.7 °C81 %1012.2 hPa11.3 kmCalmClear
4:53 AM-3.3 °C-5.6 °C84 %1012.2 hPa9.7 kmCalmClear
5:53 AM-3.9 °C-6.1 °C85 %1011.5 hPa11.3 kmCalmClear
6:53 AM-3.3 °C-5 °C88 %1011.2 hPa11.3 kmCalmClear
7:53 AM-2.2 °C-4.4 °C85 %1010.2 hPa8 kmCalmClear
8:53 AM0 °C-4.4 °C73 %1009.1 hPa12.9 kmNE (50°)11.1 km/hOvercast
9:53 AM0.6 °C-4.4 °C70 %1009.8 hPa14.5 kmNNE (30°)7.4 km/hMostly Cloudy
10:53 AM1.1 °C-3.9 °C70 %1010.2 hPa14.5 kmVariable5.6 km/hMostly Cloudy
11:53 AM1.7 °C-3.3 °C70 %1009.5 hPa11.3 kmNorth (350°)11.1 km/hMostly Cloudy
12:53 PM1.7 °C-3.3 °C70 %1008.5 hPa11.3 kmNorth (350°)7.4 km/hOvercast
1:53 PM1.7 °C-3.3 °C70 %1007.5 hPa11.3 kmNNW (340°)5.6 km/hOvercast
2:53 PM1.7 °C-3.3 °C70 %1007.1 hPa12.9 kmCalmOvercast
3:08 PM2 °C-3 °C70 %1006.4 hPa12.9 kmNW (310°)7.4 km/hOvercast
3:53 PM1.7 °C-3.3 °C70 %1007.8 hPa11.3 kmNNW (330°)11.1 km/hOvercast
4:53 PM1.1 °C-3.3 °C73 %1008.1 hPa9.7 kmNW (320°)11.1 km/h0 mmHaze
5:53 PM1.1 °C-3.9 °C70 %1008.5 hPa8 kmWNW (300°)9.3 km/hHaze
6:53 PM0.6 °C-3.9 °C72 %1009.5 hPa11.3 kmNW (310°)9.3 km/hMostly Cloudy
7:05 PM1 °C-4 °C70 %1008.5 hPa12.9 kmCalmScattered Clouds
7:53 PM-0.6 °C-4.4 °C76 %1010.5 hPa9.7 kmCalmHaze
8:53 PM-1.1 °C-5 °C75 %1011.2 hPa11.3 kmCalmClear
9:53 PM-2.8 °C-5.6 °C81 %1011.5 hPa9.7 kmCalmHaze
10:53 PM-3.3 °C-5.6 °C84 %1012.2 hPa8 kmCalmClear
11:53 PM-4.4 °C-6.1 °C88 %1012.9 hPa8 kmCalmClear
Hourly data recorded from KPHD, located 0 kilometers away from Coshocton, Ohio







STORIES FROM OUR PARTNERS